| time (UTC) | temp C | wind direction | speed KPH | gust KPH | rain 1hr cm | rain 24hr cm | rain mn cm | humidity % | barometer mb |
| 20260506044543 | 15 | 0 | 0.0 | 0.0 | 0.00 | 0.00 | 0.00 | 89 | 1017.3 |
| 20260506043044 | 16 | 0 | 0.0 | 0.0 | 0.00 | 0.00 | 0.00 | 89 | 1017.3 |
| 20260506041548 | 16 | 0 | 0.0 | 0.0 | 0.00 | 0.00 | 0.00 | 87 | 1017.4 |
| 20260506040056 | 16 | 0 | 0.0 | 0.0 | 0.00 | 0.00 | 0.00 | 86 | 1017.4 |
| 20260506034538 | 16 | 0 | 0.0 | 0.0 | 0.00 | 0.00 | 0.00 | 85 | 1017.5 |
| 20260506033039 | 17 | 0 | 0.0 | 0.0 | 0.00 | 0.00 | 0.00 | 83 | 1017.7 |
| 20260506031553 | 17 | 0 | 0.0 | 0.0 | 0.00 | 0.00 | 0.00 | 84 | 1017.6 |
| 20260506030042 | 17 | 0 | 0.0 | 0.0 | 0.00 | 0.00 | 0.00 | 82 | 1017.9 |
| 20260506024543 | 17 | 0 | 0.0 | 3.2 | 0.00 | 0.00 | 0.00 | 80 | 1017.7 |
| 20260506023039 | 17 | 0 | 0.0 | 0.0 | 0.00 | 0.00 | 0.00 | 80 | 1017.6 |
| 20260506021538 | 18 | 0 | 0.0 | 1.6 | 0.00 | 0.00 | 0.00 | 79 | 1017.8 |
| 20260506020039 | 18 | 0 | 0.0 | 4.8 | 0.00 | 0.00 | 0.00 | 78 | 1017.7 |
| 20260506014544 | 18 | 0 | 0.0 | 3.2 | 0.00 | 0.00 | 0.00 | 77 | 1017.5 |
| 20260506013044 | 18 | 0 | 0.0 | 0.0 | 0.00 | 0.00 | 0.00 | 76 | 1017.6 |
| 20260506011543 | 18 | 0 | 0.0 | 1.6 | 0.00 | 0.00 | 0.00 | 75 | 1017.4 |
| 20260506010043 | 19 | 0 | 0.0 | 4.8 | 0.00 | 0.00 | 0.00 | 75 | 1017.2 |
| 20260506004538 | 19 | 0 | 0.0 | 3.2 | 0.00 | 0.00 | 0.00 | 73 | 1017.1 |
| 20260506003038 | 20 | 0 | 0.0 | 0.0 | 0.00 | 0.00 | 0.00 | 73 | 1017.0 |
| 20260506001537 | 20 | 0 | 0.0 | 1.6 | 0.00 | 0.00 | 0.00 | 71 | 1016.9 |
| 20260506000044 | 20 | 0 | 1.6 | 14.5 | 0.00 | 0.00 | 0.00 | 69 | 1016.9 |
| 20260505234550 | 21 | 0 | 0.0 | 6.4 | 0.00 | 0.00 | 0.00 | 69 | 1016.8 |
| 20260505233042 | 21 | 360 | 1.6 | 9.7 | 0.00 | 0.00 | 0.00 | 68 | 1016.9 |
| 20260505231546 | 21 | 0 | 1.6 | 12.9 | 0.00 | 0.00 | 0.00 | 66 | 1017.0 |
| 20260505230037 | 22 | 360 | 3.2 | 9.7 | 0.00 | 0.00 | 0.00 | 63 | 1017.0 |
| 20260505224544 | 22 | 360 | 3.2 | 14.5 | 0.00 | 0.00 | 0.00 | 62 | 1017.0 |
| 20260505223044 | 22 | 0 | 0.0 | 16.1 | 0.00 | 0.00 | 0.00 | 63 | 1017.0 |
| 20260505221537 | 22 | 360 | 1.6 | 12.9 | 0.00 | 0.00 | 0.00 | 62 | 1016.9 |
| 20260505220043 | 22 | 360 | 0.0 | 16.1 | 0.00 | 0.00 | 0.00 | 63 | 1017.0 |
| 20260505214548 | 23 | 360 | 3.2 | 14.5 | 0.00 | 0.00 | 0.00 | 63 | 1016.8 |
| 20260505213038 | 22 | 360 | 1.6 | 9.7 | 0.00 | 0.00 | 0.00 | 63 | 1016.7 |
| 20260505211535 | 23 | 360 | 1.6 | 16.1 | 0.00 | 0.00 | 0.00 | 62 | 1016.5 |
| 20260505210037 | 23 | 360 | 3.2 | 9.7 | 0.00 | 0.00 | 0.00 | 63 | 1016.7 |
| 20260505204536 | 23 | 0 | 3.2 | 16.1 | 0.00 | 0.00 | 0.00 | 61 | 1017.0 |
| 20260505203039 | 23 | 0 | 3.2 | 14.5 | 0.00 | 0.00 | 0.00 | 62 | 1016.8 |
| 20260505201539 | 23 | 360 | 0.0 | 17.7 | 0.00 | 0.00 | 0.00 | 61 | 1017.0 |
| 20260505200043 | 23 | 360 | 1.6 | 12.9 | 0.00 | 0.00 | 0.00 | 60 | 1016.9 |
| 20260505194538 | 23 | 0 | 1.6 | 16.1 | 0.00 | 0.00 | 0.00 | 60 | 1017.2 |
| 20260505193033 | 23 | 360 | 1.6 | 16.1 | 0.00 | 0.00 | 0.00 | 58 | 1017.5 |
| 20260505191544 | 23 | 360 | 1.6 | 19.3 | 0.00 | 0.00 | 0.00 | 59 | 1017.6 |
| 20260505190043 | 24 | 0 | 4.8 | 16.1 | 0.00 | 0.00 | 0.00 | 57 | 1017.7 |
| 20260505184538 | 24 | 0 | 3.2 | 14.5 | 0.00 | 0.00 | 0.00 | 57 | 1017.7 |
| 20260505183043 | 24 | 360 | 1.6 | 19.3 | 0.00 | 0.00 | 0.00 | 57 | 1017.7 |
| 20260505181546 | 25 | 360 | 4.8 | 14.5 | 0.00 | 0.00 | 0.00 | 55 | 1017.8 |
| 20260505180041 | 25 | 360 | 1.6 | 16.1 | 0.00 | 0.00 | 0.00 | 56 | 1017.9 |
| 20260505174543 | 25 | 0 | 6.4 | 20.9 | 0.00 | 0.00 | 0.00 | 54 | 1017.8 |
| 20260505173038 | 25 | 0 | 1.6 | 9.7 | 0.00 | 0.00 | 0.00 | 53 | 1017.8 |
| 20260505171539 | 25 | 360 | 1.6 | 9.7 | 0.00 | 0.00 | 0.00 | 52 | 1017.7 |
| 20260505170037 | 25 | 360 | 1.6 | 14.5 | 0.00 | 0.00 | 0.00 | 55 | 1018.0 |
| 20260505164537 | 24 | 360 | 1.6 | 14.5 | 0.00 | 0.00 | 0.00 | 55 | 1018.0 |
| 20260505163049 | 24 | 360 | 1.6 | 16.1 | 0.00 | 0.00 | 0.00 | 55 | 1018.2 |
| 20260505161538 | 24 | 360 | 3.2 | 14.5 | 0.00 | 0.00 | 0.00 | 55 | 1018.4 |
| 20260505153043 | 23 | 0 | 4.8 | 12.9 | 0.00 | 0.00 | 0.00 | 56 | 1018.7 |
| 20260505151541 | 23 | 0 | 1.6 | 8.0 | 0.00 | 0.00 | 0.00 | 59 | 1018.8 |
| 20260505124549 | 18 | 0 | 0.0 | 8.0 | 0.00 | 0.00 | 0.00 | 79 | 1018.8 |
| 20260505123045 | 17 | 0 | 0.0 | 3.2 | 0.00 | 0.00 | 0.00 | 82 | 1018.7 |
| 20260505121540 | 16 | 0 | 0.0 | 4.8 | 0.00 | 0.00 | 0.00 | 87 | 1018.6 |
| 20260505120037 | 15 | 0 | 0.0 | 0.0 | 0.00 | 0.00 | 0.00 | 93 | 1018.6 |
| 20260505114537 | 13 | 0 | 0.0 | 0.0 | 0.00 | 0.00 | 0.00 | 95 | 1018.5 |
| 20260505113041 | 12 | 0 | 0.0 | 0.0 | 0.00 | 0.00 | 0.00 | 95 | 1018.3 |
| 20260505111540 | 11 | 0 | 0.0 | 0.0 | 0.00 | 0.00 | 0.00 | 95 | 1018.4 |
| 20260505101538 | 11 | 0 | 0.0 | 0.0 | 0.00 | 0.00 | 0.00 | 93 | 1017.8 |
| 20260505100037 | 11 | 0 | 0.0 | 0.0 | 0.00 | 0.00 | 0.00 | 93 | 1017.5 |
| 20260505094540 | 11 | 0 | 0.0 | 0.0 | 0.00 | 0.00 | 0.00 | 93 | 1017.5 |
| 20260505093043 | 12 | 0 | 0.0 | 0.0 | 0.00 | 0.00 | 0.00 | 93 | 1017.3 |
| 20260505091539 | 12 | 0 | 0.0 | 0.0 | 0.00 | 0.00 | 0.00 | 93 | 1017.1 |
| 20260505090039 | 12 | 0 | 0.0 | 0.0 | 0.00 | 0.00 | 0.00 | 93 | 1017.0 |
| 20260505084535 | 12 | 0 | 0.0 | 0.0 | 0.00 | 0.00 | 0.00 | 92 | 1016.8 |
| 20260505083037 | 12 | 0 | 0.0 | 0.0 | 0.00 | 0.00 | 0.00 | 93 | 1016.8 |
| 20260505081544 | 12 | 0 | 0.0 | 0.0 | 0.00 | 0.00 | 0.00 | 92 | 1016.7 |
| 20260505080038 | 12 | 0 | 0.0 | 0.0 | 0.00 | 0.00 | 0.00 | 91 | 1016.8 |
| 20260505074539 | 12 | 0 | 0.0 | 0.0 | 0.00 | 0.00 | 0.00 | 92 | 1016.6 |
| 20260505073045 | 13 | 0 | 0.0 | 0.0 | 0.00 | 0.00 | 0.00 | 91 | 1016.7 |
| 20260505071549 | 13 | 0 | 0.0 | 0.0 | 0.00 | 0.00 | 0.00 | 90 | 1016.6 |
| 20260505070036 | 13 | 0 | 0.0 | 0.0 | 0.00 | 0.00 | 0.00 | 90 | 1016.6 |
| 20260505064538 | 13 | 0 | 0.0 | 0.0 | 0.00 | 0.00 | 0.00 | 89 | 1016.7 |
| 20260505063041 | 13 | 0 | 0.0 | 0.0 | 0.00 | 0.00 | 0.00 | 89 | 1016.7 |
| 20260505061539 | 13 | 0 | 0.0 | 0.0 | 0.00 | 0.00 | 0.00 | 88 | 1016.7 |
| 20260505060039 | 13 | 0 | 0.0 | 0.0 | 0.00 | 0.00 | 0.00 | 89 | 1016.9 |
| 20260505054551 | 13 | 0 | 0.0 | 0.0 | 0.00 | 0.00 | 0.00 | 87 | 1017.0 |
| 20260505053051 | 13 | 0 | 0.0 | 0.0 | 0.00 | 0.00 | 0.00 | 85 | 1017.1 |
| 20260505051541 | 14 | 0 | 0.0 | 0.0 | 0.00 | 0.00 | 0.00 | 85 | 1017.4 |